This demonstration page uses our WeatherBlox Daily Observations layout. Learn more.

Left ArrowRight Arrow

Hourly Observations for April 1, 2020

Temp ( °F °C ) Dew Point ( °F °C ) Humidity (%) Winds ( mph kmh ) Pressure ( in mb ) Visibility ( mi km ) Precip ( " mm )
12:52 am 00:52 Mostly Clear 54 12.2 36 2.2 51 51 SE 14 22 29.88 1012 10 16 0.00 0.00
1:52 am 01:52 Mostly Cloudy 53 11.7 33 0.6 47 47 SE 12 19 29.89 1012 10 16 0.00 0.00
2:52 am 02:52 Mostly Cloudy 51 10.6 34 1.1 52 52 SE 14 22 29.88 1012 10 16 0.00 0.00
3:52 am 03:52 Mostly Cloudy 49 9.4 36 2.2 61 61 SE 9 15 29.87 1012 10 16 0.00 0.00
4:52 am 04:52 Partly Cloudy 48 8.9 36 2.2 63 63 SSE 9 15 29.88 1012 10 16 0.00 0.00
5:52 am 05:52 Mostly Clear 46 7.8 36 2.2 68 68 SSE 9 15 29.87 1012 10 16 0.00 0.00
6:52 am 06:52 Mostly Clear 45 7.2 37 2.8 74 74 SSE 13 20 29.89 1012 10 16 0.00 0.00
7:52 am 07:52 Mostly Sunny 47 8.3 38 3.3 71 71 SSE 14 22 29.90 1012 10 16 0.00 0.00
8:52 am 08:52 Partly Cloudy 51 10.6 39 3.9 64 64 SSE 15 24 29.89 1012 10 16 0.00 0.00
9:52 am 09:52 Mostly Sunny 56 13.3 43 6.1 62 62 S 15 24 29.88 1012 10 16 0.00 0.00
10:52 am 10:52 Mostly Sunny 60 15.6 44 6.7 56 56 SSE 18 30 29.87 1011 10 16 0.00 0.00
11:52 am 11:52 Partly Cloudy 64 17.8 46 7.8 52 52 SSE 15 24 29.85 1011 10 16 0.00 0.00
12:52 pm 12:52 Partly Cloudy 66 18.9 46 7.8 49 49 SSE 17 28 29.83 1010 10 16 0.00 0.00
1:52 pm 13:52 Partly Cloudy 70 21.1 46 7.8 42 42 SSE 23 37 29.80 1009 10 16 0.00 0.00
2:52 pm 14:52 Mostly Cloudy 72 22.2 43 6.1 35 35 S 25 41 29.77 1008 10 16 0.00 0.00
3:52 pm 15:52 Mostly Cloudy 73 22.8 43 6.1 34 34 SSE 24 39 29.75 1008 10 16 0.00 0.00
4:52 pm 16:52 Mostly Cloudy 73 22.8 44 6.7 35 35 SSE 26 43 29.74 1007 10 16 0.00 0.00
5:52 pm 17:52 Mostly Cloudy 73 22.8 43 6.1 34 34 SSE 17 28 29.74 1007 10 16 0.00 0.00
6:52 pm 18:52 Mostly Cloudy 71 21.7 41 5 34 34 SSE 17 28 29.74 1007 10 16 0.00 0.00
7:52 pm 19:52 Mostly Cloudy 68 20 41 5 38 38 SSE 16 26 29.76 1008 10 16 0.00 0.00
8:52 pm 20:52 Mostly Cloudy 66 18.9 42 5.6 42 42 SSE 16 26 29.78 1009 10 16 0.00 0.00
9:52 pm 21:52 Mostly Cloudy 64 17.8 42 5.6 45 45 SSE 16 26 29.81 1009 10 16 0.00 0.00
10:52 pm 22:52 Mostly Cloudy 61 16.1 42 5.6 50 50 SSE 15 24 29.81 1010 10 16 0.00 0.00
11:52 pm 23:52 Mostly Cloudy 58 14.4 43 6.1 58 58 SSE 13 20 29.81 1010 10 16 0.00 0.00

Powered by AerisWeather